Location: Kinloch
(38.7406°N, 90.3254°W)
Time: 15:34:17
(UTC+00:00)

ISS - Pass Details

Date: 13 February 2026
Orbit: 416 x 426 km, 51.6° (Epoch: 8 March)

Event Time Altitude Azimuth Distance (km) Brightness Sun altitude
Exits shadow 12:15:13 - 247° (WSW) 1,689 -1.2 -8.3°
Reaches altitude 10° 12:15:43 10° 249° (WSW) 1,488 -1.5 -8.2°
Maximum altitude 12:18:58 48° 325° (NW) 551 -3.4 -7.6°
Drops below altitude 10° 12:22:13 10° 42° (NE) 1,491 -0.5 -7.0°
Sets 12:24:22 0° 48° (NE) 2,356 0.6 -6.5°
